Fort Knox, KY

3:12 AM EST on December 08, 2019 (GMT -0500)
Godman Army Air Field

Weather History for KFTK - October, 2019

Change the Weather History Date:

Friday, October 11, 2019

  Actual Average Record
Temperature  
Mean Temperature 60 °F -  
Max Temperature 73 °F 67 °F 87 °F (2010)
Min Temperature 45 °F 46 °F 30 °F (2012)
Degree Days  
Heating Degree Days 6    
Growing Degree Days 10 (Base 50)    
Moisture  
Dew Point 58 °F    
Average Humidity 85    
Maximum Humidity 100    
Minimum Humidity 65    
Precipitation  
Precipitation 0.52 in - - ()
Sea Level Pressure  
Sea Level Pressure 30.02 in    
Wind  
Wind Speed 7 mph (SW)    
Max Wind Speed 16 mph    
Max Gust Speed 28 mph    
Visibility 10 miles    
Events Rain    
Averages and records for this station are not official NWS values.
T = Trace of Precipitation, MM = Missing Value Source: NWS Daily Summary

Daily Weather History Graph

Daily Weather History Graph

Search for Another Location

Airport or City:

Astronomy

Oct. 11, 2019 Rise Set
Actual Time 7:48 AM EDT 7:12 PM EDT
Civil Twilight 7:22 AM EDT 7:38 PM EDT
Nautical Twilight 6:51 AM EDT 8:09 PM EDT
Astronomical Twilight 6:21 AM EDT 8:39 PM EDT
Moon 6:38 PM EDT (10/11) 5:32 AM EDT (10/11)
Length of Visible Light 12h 16m
Length of Day
11h 23m
Waxing Gibbous, 96% of the Moon is Illuminated
Oct 11
Waxing Gibbous
Oct 13
Full
Oct 21
Last Quarter
Oct 27
New
Nov 4
First Quarter

Hourly Weather History & Observations

Time (EDT) Temp. Windchill Dew Point Humidity Pressure Visibility Wind Dir Wind Speed Gust Speed Precip Events Conditions
12:56 AM 68.7 °F - 58.5 °F 70% 30.04 in 10.0 mi South 3.5 mph - N/A   Clear
1:56 AM 67.5 °F - 59.2 °F 75% 30.04 in 10.0 mi SSE 3.5 mph - N/A   Clear
2:37 AM 66.2 °F - 59.0 °F 78% 30.01 in 10.0 mi SE 3.5 mph - N/A   Clear
2:56 AM 66.0 °F - 59.4 °F 79% 30.01 in 10.0 mi SSE 3.5 mph - N/A   Clear
3:56 AM 64.0 °F - 59.7 °F 86% 30.01 in 10.0 mi East 3.5 mph - N/A   Partly Cloudy
4:56 AM 64.6 °F - 60.3 °F 86% 30.00 in 10.0 mi East 5.8 mph - N/A   Scattered Clouds
5:56 AM 65.5 °F - 60.1 °F 83% 30.01 in 10.0 mi SE 6.9 mph - N/A   Mostly Cloudy
6:56 AM 64.8 °F - 60.1 °F 85% 30.03 in 10.0 mi SSE 6.9 mph - N/A   Scattered Clouds
7:56 AM 65.3 °F - 59.4 °F 81% 30.03 in 10.0 mi SSE 6.9 mph - N/A   Mostly Cloudy
8:49 AM 68.0 °F - 59.0 °F 73% 30.04 in 10.0 mi South 10.4 mph - N/A   Mostly Cloudy
8:56 AM 68.4 °F - 58.6 °F 71% 30.04 in 10.0 mi South 9.2 mph - N/A   Mostly Cloudy
9:49 AM 68.0 °F - 59.0 °F 73% 30.06 in 10.0 mi SSW 10.4 mph - N/A Rain Light Rain
9:56 AM 67.3 °F - 60.1 °F 78% 30.07 in 7.0 mi SSW 8.1 mph - 0.01 in Rain Light Rain
10:41 AM 64.4 °F - 64.4 °F 100% 30.07 in 2.2 mi South 8.1 mph - N/A Rain Heavy Rain
10:56 AM 63.9 °F - 63.9 °F 100% 30.07 in 5.0 mi South 4.6 mph - 0.29 in Rain Rain
11:10 AM 64.4 °F - 64.4 °F 100% 30.05 in 9.0 mi SE 8.1 mph - N/A Rain Light Rain
11:40 AM 64.4 °F - 64.4 °F 100% 30.04 in 10.0 mi ESE 8.1 mph - N/A   Overcast
11:56 AM 64.8 °F - 63.9 °F 97% 30.04 in 10.0 mi SE 8.1 mph - 0.05 in   Mostly Cloudy
12:56 PM 68.2 °F - 61.7 °F 80% 30.03 in 10.0 mi SSE 9.2 mph - N/A   Overcast
1:31 PM 69.8 °F - 60.8 °F 73% 30.01 in 10.0 mi South 11.5 mph - N/A   Overcast
1:56 PM 70.7 °F - 60.8 °F 71% 30.01 in 10.0 mi South 9.2 mph - N/A   Partly Cloudy
2:13 PM 71.6 °F - 60.8 °F 69% 30.00 in 10.0 mi South 10.4 mph - N/A Rain Light Rain
2:31 PM 71.6 °F - 60.8 °F 69% 29.99 in 10.0 mi South 12.7 mph 25.3 mph N/A   Mostly Cloudy
2:46 PM 71.6 °F - 60.8 °F 69% 29.98 in 10.0 mi South 10.4 mph 20.7 mph N/A Rain Light Rain
3:04 PM 71.6 °F - 60.8 °F 69% 29.97 in 10.0 mi South 8.1 mph - N/A   Scattered Clouds
3:35 PM 73.4 °F - 60.8 °F 65% 29.96 in 10.0 mi South 9.2 mph - N/A   Light Drizzle
3:46 PM 71.6 °F - 60.8 °F 69% 29.96 in 10.0 mi South 6.9 mph - N/A   Mostly Cloudy
3:56 PM 72.1 °F - 60.1 °F 66% 29.96 in 10.0 mi South 9.2 mph - 0.00 in   Overcast
4:30 PM 73.4 °F - 60.8 °F 65% 29.94 in 10.0 mi South 8.1 mph - N/A   Overcast
4:40 PM 73.4 °F - 60.8 °F 65% 29.94 in 10.0 mi South 6.9 mph - N/A Rain Light Rain
4:55 PM 71.6 °F - 60.8 °F 69% 29.94 in 10.0 mi SSW 5.8 mph - N/A   Overcast
4:56 PM 72.3 °F - 61.2 °F 68% 29.94 in 10.0 mi SSW 5.8 mph - 0.00 in   Overcast
5:14 PM 71.6 °F - 60.8 °F 69% 29.94 in 10.0 mi West 6.9 mph - N/A Rain Light Rain
5:23 PM 69.8 °F - 62.6 °F 78% 29.94 in 10.0 mi WSW 3.5 mph - N/A   Overcast
5:27 PM 69.8 °F - 62.6 °F 78% 29.94 in 10.0 mi SW 4.6 mph - N/A Rain Light Rain
5:39 PM 69.8 °F - 62.6 °F 78% 29.96 in 10.0 mi WSW 6.9 mph - N/A Rain Light Rain
5:56 PM 67.6 °F - 64.2 °F 89% 29.96 in 10.0 mi WSW 9.2 mph - 0.02 in Rain Light Rain
6:56 PM 65.5 °F - 65.5 °F 100% 29.97 in 10.0 mi SW 6.9 mph - 0.02 in Rain Light Rain
7:03 PM 66.2 °F - 66.2 °F 100% 29.97 in 10.0 mi SW 5.8 mph - N/A   Overcast
7:13 PM 66.2 °F - 66.2 °F 100% 29.97 in 10.0 mi SW 6.9 mph - N/A Rain Light Rain
7:33 PM 66.2 °F - 66.2 °F 100% 29.99 in 8.0 mi West 16.1 mph 25.3 mph N/A Rain Light Rain
7:47 PM 60.8 °F - 60.8 °F 100% 30.00 in 10.0 mi WNW 15.0 mph 21.9 mph N/A Rain Light Rain
7:56 PM 59.2 °F - 59.2 °F 100% 30.00 in 10.0 mi West 12.7 mph 21.9 mph 0.03 in Rain Light Rain
8:06 PM 57.2 °F - 57.2 °F 100% 30.02 in 10.0 mi West 13.8 mph 24.2 mph N/A Rain Rain
8:23 PM 53.6 °F - 51.8 °F 94% 30.05 in 8.0 mi West 15.0 mph 27.6 mph N/A Rain Light Rain
8:38 PM 51.8 °F - 51.8 °F 100% 30.06 in 10.0 mi WNW 15.0 mph 21.9 mph N/A Rain Light Rain
8:56 PM 50.7 °F - 50.4 °F 99% 30.06 in 10.0 mi WNW 12.7 mph 20.7 mph 0.03 in Rain Light Rain
9:11 PM 50.0 °F - 50.0 °F 100% 30.06 in 8.0 mi WNW 13.8 mph - N/A Rain Rain
9:40 PM 50.0 °F - 48.2 °F 94% 30.09 in 10.0 mi West 11.5 mph - N/A Rain Light Rain
9:56 PM 48.7 °F - 48.4 °F 99% 30.09 in 9.0 mi WNW 10.4 mph - 0.05 in Rain Light Rain
10:11 PM 48.2 °F - 48.2 °F 100% 30.10 in 6.0 mi WNW 11.5 mph 17.3 mph N/A Rain Light Rain
10:32 PM 48.2 °F - 48.2 °F 100% 30.11 in 10.0 mi WNW 9.2 mph 18.4 mph N/A   Overcast
10:45 PM 48.2 °F - 48.2 °F 100% 30.11 in 10.0 mi WNW 12.7 mph 17.3 mph N/A Rain Light Rain
10:56 PM 47.8 °F - 47.5 °F 99% 30.11 in 6.0 mi NW 9.2 mph - 0.02 in Rain Light Rain
11:12 PM 48.2 °F - 46.4 °F 93% 30.12 in 10.0 mi WNW 12.7 mph - N/A   Overcast
11:17 PM 46.4 °F 41.9 °F 46.4 °F 100% 30.12 in 10.0 mi WNW 9.2 mph - N/A Rain Light Rain
11:27 PM 46.4 °F 41.5 °F 44.6 °F 93% 30.12 in 10.0 mi WNW 10.4 mph 20.7 mph N/A   Overcast
11:40 PM 46.4 °F 41.5 °F 42.8 °F 87% 30.14 in 10.0 mi WNW 10.4 mph 21.9 mph N/A   Overcast
11:56 PM 45.0 °F 40.1 °F 42.3 °F 90% 30.13 in 10.0 mi WNW 9.2 mph 24.2 mph 0.00 in   Overcast